Time,TemperatureF,DewpointF,PressureIn,WindDirection,WindDirectionDegrees,WindSpeedMPH,WindSpeedGustMPH,Humidity,HourlyPrecipIn,Conditions,Clouds,dailyrainin,SoftwareType,DateUTC
2013-03-14 00:02:00,35.0,24.0,-100.00,SSW,195,1.0,1.0,63,-99.99,,,-99.99,,2013-03-14 06:02:00,
2013-03-14 00:12:00,35.0,24.0,-100.00,SSW,195,1.0,1.0,63,-99.99,,,-99.99,,2013-03-14 06:12:00,
2013-03-14 00:22:00,35.0,23.0,-100.00,South,188,1.0,1.0,62,-99.99,,,-99.99,,2013-03-14 06:22:00,
2013-03-14 00:32:00,35.0,23.0,-100.00,South,188,1.0,1.0,62,-99.99,,,-99.99,,2013-03-14 06:32:00,
2013-03-14 00:42:00,35.0,23.0,-100.00,South,188,1.0,1.0,62,-99.99,,,-99.99,,2013-03-14 06:42:00,
2013-03-14 01:32:00,34.0,23.0,-100.00,South,183,1.0,2.0,63,-99.99,,,-99.99,,2013-03-14 07:32:00,
2013-03-14 01:42:00,34.0,23.0,-100.00,South,183,1.0,2.0,63,-99.99,,,-99.99,,2013-03-14 07:42:00,
2013-03-14 01:52:00,34.0,22.0,-100.00,South,181,2.0,2.0,62,-99.99,,,-99.99,,2013-03-14 07:52:00,
2013-03-14 02:02:00,35.0,22.0,-100.00,South,179,2.0,2.0,59,-99.99,,,-99.99,,2013-03-14 08:02:00,
2013-03-14 02:12:00,35.0,22.0,-100.00,South,179,2.0,2.0,59,-99.99,,,-99.99,,2013-03-14 08:12:00,
2013-03-14 02:21:00,35.0,22.0,-100.00,South,190,1.0,2.0,58,-99.99,,,-99.99,,2013-03-14 08:21:00,
2013-03-14 02:31:00,34.0,22.0,-100.00,South,185,1.0,2.0,60,-99.99,,,-99.99,,2013-03-14 08:31:00,
2013-03-14 02:41:00,34.0,22.0,-100.00,South,185,1.0,2.0,60,-99.99,,,-99.99,,2013-03-14 08:41:00,
2013-03-14 02:51:00,35.0,22.0,-100.00,South,187,1.0,2.0,59,-99.99,,,-99.99,,2013-03-14 08:51:00,
2013-03-14 03:01:00,34.0,22.0,-100.00,South,186,1.0,2.0,61,-99.99,,,-99.99,,2013-03-14 09:01:00,
2013-03-14 03:12:00,34.0,22.0,-100.00,South,186,1.0,2.0,61,-99.99,,,-99.99,,2013-03-14 09:12:00,
2013-03-14 03:22:00,33.0,21.0,-100.00,South,180,2.0,2.0,62,-99.99,,,-99.99,,2013-03-14 09:22:00,
2013-03-14 03:32:00,34.0,22.0,-100.00,South,178,2.0,2.0,60,-99.99,,,-99.99,,2013-03-14 09:32:00,
2013-03-14 03:42:00,34.0,22.0,-100.00,South,178,2.0,2.0,60,-99.99,,,-99.99,,2013-03-14 09:42:00,
2013-03-14 03:52:00,35.0,21.0,-100.00,South,187,1.0,2.0,56,-99.99,,,-99.99,,2013-03-14 09:52:00,
2013-03-14 04:02:00,34.0,20.0,-100.00,South,178,2.0,2.0,57,-99.99,,,-99.99,,2013-03-14 10:02:00,
2013-03-14 04:12:00,34.0,20.0,-100.00,South,178,2.0,2.0,57,-99.99,,,-99.99,,2013-03-14 10:12:00,
2013-03-14 04:22:00,34.0,20.0,-100.00,South,176,2.0,2.0,57,-99.99,,,-99.99,,2013-03-14 10:22:00,
2013-03-14 04:32:00,34.0,20.0,-100.00,South,179,2.0,2.0,55,-99.99,,,-99.99,,2013-03-14 10:32:00,
2013-03-14 04:42:00,34.0,20.0,-100.00,South,179,2.0,2.0,55,-99.99,,,-99.99,,2013-03-14 10:42:00,
2013-03-14 04:52:00,35.0,20.0,-100.00,South,191,1.0,2.0,53,-99.99,,,-99.99,,2013-03-14 10:52:00,
2013-03-14 05:02:00,35.0,19.0,-100.00,South,185,1.0,2.0,52,-99.99,,,-99.99,,2013-03-14 11:02:00,
2013-03-14 05:12:00,35.0,19.0,-100.00,South,185,1.0,2.0,52,-99.99,,,-99.99,,2013-03-14 11:12:00,
2013-03-14 05:22:00,35.0,20.0,-100.00,South,189,1.0,2.0,53,-99.99,,,-99.99,,2013-03-14 11:22:00,
2013-03-14 05:32:00,35.0,20.0,-100.00,South,189,1.0,2.0,54,-99.99,,,-99.99,,2013-03-14 11:32:00,
2013-03-14 05:42:00,35.0,20.0,-100.00,South,189,1.0,2.0,54,-99.99,,,-99.99,,2013-03-14 11:42:00,
2013-03-14 05:52:00,34.0,22.0,-100.00,South,182,1.0,2.0,60,-99.99,,,-99.99,,2013-03-14 11:52:00,
2013-03-14 06:02:00,34.0,22.0,-100.00,South,184,1.0,2.0,60,-99.99,,,-99.99,,2013-03-14 12:02:00,
2013-03-14 06:12:00,34.0,22.0,-100.00,South,184,1.0,2.0,60,-99.99,,,-99.99,,2013-03-14 12:12:00,
2013-03-14 06:22:00,33.0,22.0,-100.00,South,187,1.0,2.0,63,-99.99,,,-99.99,,2013-03-14 12:22:00,
2013-03-14 06:32:00,33.0,23.0,-100.00,South,184,1.0,2.0,67,-99.99,,,-99.99,,2013-03-14 12:32:00,
2013-03-14 06:42:00,33.0,23.0,-100.00,South,184,1.0,2.0,67,-99.99,,,-99.99,,2013-03-14 12:42:00,
2013-03-14 06:52:00,32.0,22.0,-100.00,South,186,1.0,2.0,66,-99.99,,,-99.99,,2013-03-14 12:52:00,
2013-03-14 07:02:00,33.0,23.0,-100.00,South,183,1.0,2.0,65,-99.99,,,-99.99,,2013-03-14 13:02:00,
2013-03-14 07:12:00,33.0,23.0,-100.00,South,183,1.0,2.0,65,-99.99,,,-99.99,,2013-03-14 13:12:00,
2013-03-14 07:22:00,33.0,22.0,-100.00,South,182,1.0,2.0,64,-99.99,,,-99.99,,2013-03-14 13:22:00,
2013-03-14 07:32:00,33.0,22.0,-100.00,South,187,1.0,2.0,63,-99.99,,,-99.99,,2013-03-14 13:32:00,
2013-03-14 07:42:00,33.0,22.0,-100.00,South,187,1.0,2.0,63,-99.99,,,-99.99,,2013-03-14 13:42:00,
2013-03-14 07:52:00,33.0,22.0,-100.00,South,182,1.0,2.0,64,-99.99,,,-99.99,,2013-03-14 13:52:00,
2013-03-14 08:02:00,33.0,22.0,-100.00,South,181,2.0,2.0,63,-99.99,,,-99.99,,2013-03-14 14:02:00,
2013-03-14 08:12:00,33.0,22.0,-100.00,South,181,2.0,2.0,63,-99.99,,,-99.99,,2013-03-14 14:12:00,
2013-03-14 08:22:00,34.0,21.0,-100.00,South,185,1.0,2.0,58,-99.99,,,-99.99,,2013-03-14 14:22:00,
2013-03-14 08:32:00,35.0,21.0,-100.00,South,181,1.0,2.0,57,-99.99,,,-99.99,,2013-03-14 14:32:00,
2013-03-14 08:42:00,35.0,21.0,-100.00,South,181,1.0,2.0,57,-99.99,,,-99.99,,2013-03-14 14:42:00,
2013-03-14 08:52:00,35.0,21.0,-100.00,South,183,1.0,2.0,57,-99.99,,,-99.99,,2013-03-14 14:52:00,
2013-03-14 09:02:00,36.0,22.0,-100.00,South,179,1.0,2.0,56,-99.99,,,-99.99,,2013-03-14 15:02:00,
2013-03-14 09:12:00,36.0,22.0,-100.00,South,179,1.0,2.0,56,-99.99,,,-99.99,,2013-03-14 15:12:00,
2013-03-14 09:22:00,36.0,21.0,-100.00,South,184,1.0,2.0,55,-99.99,,,-99.99,,2013-03-14 15:22:00,
2013-03-14 09:32:00,36.0,21.0,-100.00,South,184,1.0,2.0,55,-99.99,,,-99.99,,2013-03-14 15:32:00,
2013-03-14 09:42:00,36.0,21.0,-100.00,South,184,1.0,2.0,55,-99.99,,,-99.99,,2013-03-14 15:42:00,
2013-03-14 11:02:00,42.0,24.0,-100.00,SSW,198,1.0,1.0,49,-99.99,,,-99.99,,2013-03-14 17:02:00,
2013-03-14 11:12:00,42.0,24.0,-100.00,SSW,198,1.0,1.0,49,-99.99,,,-99.99,,2013-03-14 17:12:00,
2013-03-14 11:23:00,42.0,25.0,-100.00,SSW,197,1.0,2.0,50,-99.99,,,-99.99,,2013-03-14 17:23:00,
2013-03-14 11:32:00,44.0,25.0,-100.00,SSW,194,1.0,2.0,47,-99.99,,,-99.99,,2013-03-14 17:32:00,
2013-03-14 11:42:00,44.0,25.0,-100.00,SSW,194,1.0,2.0,47,-99.99,,,-99.99,,2013-03-14 17:42:00,
2013-03-14 11:52:00,45.0,25.0,-100.00,South,189,1.0,2.0,46,-99.99,,,-99.99,,2013-03-14 17:52:00,
2013-03-14 12:02:00,46.0,25.0,-100.00,SSW,195,1.0,3.0,44,-99.99,,,-99.99,,2013-03-14 18:02:00,
2013-03-14 12:12:00,46.0,25.0,-100.00,SSW,195,1.0,3.0,44,-99.99,,,-99.99,,2013-03-14 18:12:00,
2013-03-14 12:22:00,47.0,27.0,-100.00,South,191,1.0,2.0,45,-99.99,,,-99.99,,2013-03-14 18:22:00,
2013-03-14 12:32:00,48.0,27.0,-100.00,SSW,196,1.0,2.0,43,-99.99,,,-99.99,,2013-03-14 18:32:00,
2013-03-14 12:42:00,48.0,27.0,-100.00,SSW,196,1.0,2.0,43,-99.99,,,-99.99,,2013-03-14 18:42:00,
2013-03-14 12:52:00,48.0,27.0,-100.00,SSW,212,1.0,2.0,43,-99.99,,,-99.99,,2013-03-14 18:52:00,
2013-03-14 13:02:00,49.0,27.0,-100.00,SW,217,1.0,2.0,43,-99.99,,,-99.99,,2013-03-14 19:02:00,
2013-03-14 13:12:00,49.0,27.0,-100.00,SW,217,1.0,2.0,43,-99.99,,,-99.99,,2013-03-14 19:12:00,
2013-03-14 13:22:00,50.0,28.0,-100.00,SSW,202,1.0,2.0,42,-99.99,,,-99.99,,2013-03-14 19:22:00,
2013-03-14 13:32:00,50.0,28.0,-100.00,SSW,202,1.0,2.0,42,-99.99,,,-99.99,,2013-03-14 19:32:00,
2013-03-14 13:42:00,50.0,28.0,-100.00,SSW,202,1.0,2.0,42,-99.99,,,-99.99,,2013-03-14 19:42:00,
2013-03-14 14:32:00,51.0,26.0,-100.00,SW,223,1.0,2.0,38,-99.99,,,-99.99,,2013-03-14 20:32:00,
2013-03-14 14:42:00,51.0,26.0,-100.00,SW,223,1.0,2.0,38,-99.99,,,-99.99,,2013-03-14 20:42:00,
2013-03-14 14:52:00,51.0,27.0,-100.00,South,189,1.0,2.0,39,-99.99,,,-99.99,,2013-03-14 20:52:00,
2013-03-14 15:02:00,52.0,25.0,-100.00,SW,223,1.0,3.0,35,-99.99,,,-99.99,,2013-03-14 21:02:00,
2013-03-14 15:12:00,52.0,25.0,-100.00,SW,223,1.0,3.0,35,-99.99,,,-99.99,,2013-03-14 21:12:00,
2013-03-14 15:22:00,51.0,24.0,-100.00,WSW,243,2.0,4.0,35,-99.99,,,-99.99,,2013-03-14 21:22:00,
2013-03-14 15:32:00,51.0,24.0,-100.00,SSW,201,1.0,2.0,34,-99.99,,,-99.99,,2013-03-14 21:32:00,
2013-03-14 15:43:00,51.0,24.0,-100.00,SSW,201,1.0,2.0,34,-99.99,,,-99.99,,2013-03-14 21:43:00,
2013-03-14 15:52:00,51.0,24.0,-100.00,SW,229,1.0,2.0,34,-99.99,,,-99.99,,2013-03-14 21:52:00,
2013-03-14 16:03:00,53.0,24.0,-100.00,SSE,160,1.0,2.0,32,-99.99,,,-99.99,,2013-03-14 22:03:00,
2013-03-14 16:12:00,53.0,24.0,-100.00,SSE,160,1.0,2.0,32,-99.99,,,-99.99,,2013-03-14 22:12:00,
2013-03-14 16:23:00,53.0,24.0,-100.00,SSE,160,1.0,2.0,32,-99.99,,,-99.99,,2013-03-14 22:23:00,
2013-03-14 16:32:00,52.0,22.0,-100.00,ESE,123,1.0,2.0,30,-99.99,,,-99.99,,2013-03-14 22:32:00,
2013-03-14 16:42:00,52.0,22.0,-100.00,ESE,123,1.0,2.0,30,-99.99,,,-99.99,,2013-03-14 22:42:00,
2013-03-14 16:52:00,52.0,21.0,-100.00,SW,220,1.0,2.0,29,-99.99,,,-99.99,,2013-03-14 22:52:00,
2013-03-14 17:02:00,51.0,21.0,-100.00,North,6,2.0,6.0,30,-99.99,,,-99.99,,2013-03-14 23:02:00,
2013-03-14 17:12:00,51.0,21.0,-100.00,North,6,2.0,6.0,30,-99.99,,,-99.99,,2013-03-14 23:12:00,
2013-03-14 17:22:00,51.0,21.0,-100.00,NE,44,1.0,3.0,30,-99.99,,,-99.99,,2013-03-14 23:22:00,
2013-03-14 17:32:00,51.0,22.0,-100.00,ESE,121,1.0,2.0,32,-99.99,,,-99.99,,2013-03-14 23:32:00,
2013-03-14 17:42:00,51.0,22.0,-100.00,ESE,121,1.0,2.0,32,-99.99,,,-99.99,,2013-03-14 23:42:00,
2013-03-14 17:53:00,50.0,23.0,-100.00,NE,44,1.0,2.0,34,-99.99,,,-99.99,,2013-03-14 23:53:00,
2013-03-14 18:02:00,49.0,23.0,-100.00,South,188,1.0,3.0,35,-99.99,,,-99.99,,2013-03-15 00:02:00,
2013-03-14 18:12:00,49.0,23.0,-100.00,South,188,1.0,3.0,35,-99.99,,,-99.99,,2013-03-15 00:12:00,
2013-03-14 18:22:00,48.0,24.0,-100.00,SSW,200,0.0,1.0,39,-99.99,,,-99.99,,2013-03-15 00:22:00,
2013-03-14 18:32:00,48.0,25.0,-100.00,South,177,0.0,1.0,40,-99.99,,,-99.99,,2013-03-15 00:32:00,
2013-03-14 18:42:00,48.0,25.0,-100.00,South,177,0.0,1.0,40,-99.99,,,-99.99,,2013-03-15 00:42:00,
2013-03-14 18:52:00,47.0,25.0,-100.00,South,176,1.0,2.0,42,-99.99,,,-99.99,,2013-03-15 00:52:00,
2013-03-14 19:02:00,46.0,25.0,-100.00,South,172,1.0,2.0,44,-99.99,,,-99.99,,2013-03-15 01:02:00,
2013-03-14 19:11:00,46.0,25.0,-100.00,South,172,1.0,2.0,44,-99.99,,,-99.99,,2013-03-15 01:11:00,
2013-03-14 19:22:00,45.0,26.0,-100.00,South,180,1.0,2.0,47,-99.99,,,-99.99,,2013-03-15 01:22:00,
2013-03-14 19:32:00,44.0,26.0,-100.00,South,187,1.0,2.0,48,-99.99,,,-99.99,,2013-03-15 01:32:00,
2013-03-14 19:42:00,44.0,26.0,-100.00,South,187,1.0,2.0,48,-99.99,,,-99.99,,2013-03-15 01:42:00,
2013-03-14 19:52:00,43.0,26.0,-100.00,South,191,1.0,1.0,50,-99.99,,,-99.99,,2013-03-15 01:52:00,
2013-03-14 20:02:00,43.0,26.0,-100.00,South,188,1.0,1.0,51,-99.99,,,-99.99,,2013-03-15 02:02:00,
2013-03-14 20:12:00,43.0,26.0,-100.00,South,188,1.0,1.0,51,-99.99,,,-99.99,,2013-03-15 02:12:00,
2013-03-14 20:22:00,43.0,27.0,-100.00,South,182,1.0,2.0,52,-99.99,,,-99.99,,2013-03-15 02:22:00,
2013-03-14 20:32:00,42.0,27.0,-100.00,South,186,1.0,1.0,56,-99.99,,,-99.99,,2013-03-15 02:32:00,
2013-03-14 20:42:00,42.0,27.0,-100.00,South,186,1.0,1.0,56,-99.99,,,-99.99,,2013-03-15 02:42:00,
2013-03-14 20:52:00,42.0,26.0,-100.00,South,174,1.0,2.0,53,-99.99,,,-99.99,,2013-03-15 02:52:00,
2013-03-14 21:02:00,43.0,26.0,-100.00,SSE,149,1.0,2.0,50,-99.99,,,-99.99,,2013-03-15 03:02:00,
2013-03-14 21:12:00,43.0,26.0,-100.00,SSE,149,1.0,2.0,50,-99.99,,,-99.99,,2013-03-15 03:12:00,
2013-03-14 21:22:00,43.0,26.0,-100.00,South,180,1.0,2.0,50,-99.99,,,-99.99,,2013-03-15 03:22:00,
2013-03-14 21:32:00,43.0,26.0,-100.00,South,180,1.0,2.0,51,-99.99,,,-99.99,,2013-03-15 03:32:00,
2013-03-14 21:42:00,43.0,26.0,-100.00,South,180,1.0,2.0,51,-99.99,,,-99.99,,2013-03-15 03:42:00,
2013-03-14 21:52:00,43.0,26.0,-100.00,South,177,2.0,2.0,50,-99.99,,,-99.99,,2013-03-15 03:52:00,
2013-03-14 22:03:00,43.0,25.0,-100.00,South,171,1.0,2.0,48,-99.99,,,-99.99,,2013-03-15 04:03:00,
2013-03-14 22:12:00,43.0,25.0,-100.00,South,171,1.0,2.0,48,-99.99,,,-99.99,,2013-03-15 04:12:00,
2013-03-14 22:22:00,42.0,23.0,-100.00,South,178,1.0,2.0,47,-99.99,,,-99.99,,2013-03-15 04:22:00,
2013-03-14 22:32:00,42.0,24.0,-100.00,SSW,204,1.0,2.0,49,-99.99,,,-99.99,,2013-03-15 04:32:00,
2013-03-14 22:42:00,42.0,24.0,-100.00,SSW,204,1.0,2.0,49,-99.99,,,-99.99,,2013-03-15 04:42:00,
2013-03-14 22:52:00,43.0,24.0,-100.00,South,191,1.0,1.0,46,-99.99,,,-99.99,,2013-03-15 04:52:00,
2013-03-14 23:02:00,42.0,23.0,-100.00,South,182,1.0,2.0,47,-99.99,,,-99.99,,2013-03-15 05:02:00,
2013-03-14 23:12:00,42.0,23.0,-100.00,South,182,1.0,2.0,47,-99.99,,,-99.99,,2013-03-15 05:12:00,
2013-03-14 23:22:00,42.0,24.0,-100.00,South,185,1.0,2.0,48,-99.99,,,-99.99,,2013-03-15 05:22:00,
2013-03-14 23:32:00,42.0,24.0,-100.00,South,176,1.0,2.0,49,-99.99,,,-99.99,,2013-03-15 05:32:00,
2013-03-14 23:42:00,42.0,24.0,-100.00,South,176,1.0,2.0,49,-99.99,,,-99.99,,2013-03-15 05:42:00,
2013-03-14 23:52:00,42.0,24.0,-100.00,South,179,1.0,1.0,49,-99.99,,,-99.99,,2013-03-15 05:52:00,